Satellite-Ground Cal/Val Region Overpasses Predictions

Prediction of Satellite NPP Overpassing Cal/Val Region: PacNW

Region Location: (Latitude: 10.00, Longitude: 139.50) to (Latitude: 22.70, Longitude: 165.60).

Table of predicted overpasses for the next 14.0 days since TLE Epoch: 9/29/2017
Interval Starting Time Starting Location Ending Time Ending Location
1 09/29/2017 15:11:47 ( 22.65, 157.09) 09/29/2017 15:15:22 ( 10.03, 154.09)
2 09/30/2017 02:20:51 ( 10.03, 164.62) 09/30/2017 02:24:26 ( 22.65, 161.63)
3 09/30/2017 14:52:44 ( 22.70, 161.85) 09/30/2017 14:56:20 ( 10.02, 158.84)
4 10/01/2017 03:43:20 ( 10.05, 144.00) 10/01/2017 03:46:55 ( 22.67, 141.00)
5 10/01/2017 14:34:53 ( 18.58, 165.59) 10/01/2017 14:37:19 ( 10.00, 163.59)
6 10/01/2017 16:15:13 ( 22.68, 141.23) 10/01/2017 16:17:14 ( 15.58, 139.51)
7 10/02/2017 03:24:17 ( 10.01, 148.76) 10/02/2017 03:27:53 ( 22.69, 145.75)
8 10/02/2017 15:56:11 ( 22.66, 145.98) 10/02/2017 15:59:46 ( 10.04, 142.98)
9 10/03/2017 03:05:16 ( 10.03, 153.52) 10/03/2017 03:08:51 ( 22.65, 150.52)
10 10/03/2017 15:37:10 ( 22.64, 150.73) 10/03/2017 15:40:45 ( 10.02, 147.73)
11 10/04/2017 02:46:14 ( 10.04, 158.27) 10/04/2017 02:49:49 ( 22.66, 155.27)
12 10/04/2017 15:18:07 ( 22.69, 155.49) 10/04/2017 15:21:43 ( 10.00, 152.48)
13 10/05/2017 02:27:12 ( 10.00, 163.03) 10/05/2017 02:30:48 ( 22.68, 160.02)
14 10/05/2017 14:59:06 ( 22.67, 160.24) 10/05/2017 15:02:41 ( 10.05, 157.25)
15 10/06/2017 02:10:49 ( 19.36, 165.59) 10/06/2017 02:11:46 ( 22.70, 164.77)
16 10/06/2017 03:49:40 ( 10.02, 142.41) 10/06/2017 03:53:08 ( 22.24, 139.51)
17 10/06/2017 14:40:04 ( 22.65, 164.99) 10/06/2017 14:43:39 ( 10.03, 162.00)
18 10/06/2017 16:21:34 ( 22.64, 139.62) 10/06/2017 16:21:41 ( 22.23, 139.51)
19 10/07/2017 03:30:39 ( 10.04, 147.16) 10/07/2017 03:34:14 ( 22.66, 144.16)
20 10/07/2017 16:02:32 ( 22.68, 144.38) 10/07/2017 16:06:08 ( 10.00, 141.37)
21 10/08/2017 03:11:37 ( 10.00, 151.92) 10/08/2017 03:15:13 ( 22.68, 148.91)
22 10/08/2017 15:43:30 ( 22.67, 149.13) 10/08/2017 15:47:05 ( 10.04, 146.13)
23 10/09/2017 02:52:35 ( 10.02, 156.67) 10/09/2017 02:56:10 ( 22.64, 153.67)
24 10/09/2017 15:24:29 ( 22.65, 153.88) 10/09/2017 15:28:04 ( 10.02, 150.89)
25 10/10/2017 02:33:34 ( 10.04, 161.42) 10/10/2017 02:37:09 ( 22.66, 158.42)
26 10/10/2017 15:05:26 ( 22.68, 158.65) 10/10/2017 15:09:02 ( 10.00, 155.64)
27 10/11/2017 02:15:15 ( 12.59, 165.59) 10/11/2017 02:18:07 ( 22.68, 163.17)
28 10/11/2017 03:56:01 ( 10.01, 140.81) 10/11/2017 03:57:37 ( 15.65, 139.50)
29 10/11/2017 14:46:25 ( 22.66, 163.40) 10/11/2017 14:50:00 ( 10.04, 160.40)
30 10/12/2017 03:37:00 ( 10.03, 145.56) 10/12/2017 03:40:35 ( 22.65, 142.56)
31 10/12/2017 14:30:25 ( 11.96, 165.59) 10/12/2017 14:30:58 ( 10.02, 165.15)
32 10/12/2017 16:08:52 ( 22.70, 142.79) 10/12/2017 16:12:28 ( 10.02, 139.77)


NCC Satellite Cal/Val Overpasses Prediction Service
